<?xml version="1.0" encoding="UTF-8" standalone="no" ?>
<gpx xmlns="http://www.topografix.com/GPX/1/1" xmlns:xsi="http://www.w3.org/2001/XMLSchema-instance" xsi:schemaLocation="http://www.topografix.com/GPX/1/1 http://www.topografix.com/GPX/1/1/gpx.xsd" version="1.1" creator="VisuGPX - https://www.visugpx.com">
  <metadata>
    <name>Maulevrier_LacVerdon2Provinces</name>
    <desc><![CDATA[gnerando idor:13126070_13136699_13136719]]></desc>
  </metadata>
  <trk>
    <name><![CDATA[LaTessoualle_DeuxProvinces_11km-13136699]]></name>
    <extensions>
      <line xmlns="http://www.topografix.com/GPX/gpx_style/0/2">
        <color>00FF00</color>
        <width>4</width>
      </line>
    </extensions>
    <trkseg>
      <trkpt lat="47.00205" lon="-0.76985">
        <ele>108</ele>
        <time>2023-11-05T12:41:37Z</time>
      </trkpt>
      <trkpt lat="47.00254" lon="-0.76927">
        <ele>108</ele>
        <time>2023-11-05T12:43:01Z</time>
      </trkpt>
      <trkpt lat="47.00357" lon="-0.77418">
        <ele>105</ele>
        <time>2023-11-05T12:50:49Z</time>
      </trkpt>
      <trkpt lat="47.00249" lon="-0.77707">
        <ele>105</ele>
        <time>2023-11-05T12:55:48Z</time>
      </trkpt>
      <trkpt lat="47.00254" lon="-0.77865">
        <ele>104</ele>
        <time>2023-11-05T12:58:12Z</time>
      </trkpt>
      <trkpt lat="47.00166" lon="-0.77937">
        <ele>107</ele>
        <time>2023-11-05T13:00:27Z</time>
      </trkpt>
      <trkpt lat="47.00136" lon="-0.78053">
        <ele>107</ele>
        <time>2023-11-05T13:02:20Z</time>
      </trkpt>
      <trkpt lat="47.00106" lon="-0.78262">
        <ele>111</ele>
        <time>2023-11-05T13:05:34Z</time>
      </trkpt>
      <trkpt lat="47.00185" lon="-0.78407">
        <ele>106</ele>
        <time>2023-11-05T13:08:23Z</time>
      </trkpt>
      <trkpt lat="47.00333" lon="-0.7863">
        <ele>104</ele>
        <time>2023-11-05T13:13:06Z</time>
      </trkpt>
      <trkpt lat="47.00377" lon="-0.78854">
        <ele>105</ele>
        <time>2023-11-05T13:16:38Z</time>
      </trkpt>
      <trkpt lat="47.00343" lon="-0.78933">
        <ele>106</ele>
        <time>2023-11-05T13:18:03Z</time>
      </trkpt>
      <trkpt lat="47.00234" lon="-0.78933">
        <ele>108</ele>
        <time>2023-11-05T13:20:29Z</time>
      </trkpt>
      <trkpt lat="47.00289" lon="-0.79078">
        <ele>108</ele>
        <time>2023-11-05T13:23:00Z</time>
      </trkpt>
      <trkpt lat="47.00436" lon="-0.78977">
        <ele>106</ele>
        <time>2023-11-05T13:26:36Z</time>
      </trkpt>
      <trkpt lat="47.00549" lon="-0.79027">
        <ele>105</ele>
        <time>2023-11-05T13:29:14Z</time>
      </trkpt>
      <trkpt lat="47.00668" lon="-0.79121">
        <ele>103</ele>
        <time>2023-11-05T13:32:14Z</time>
      </trkpt>
      <trkpt lat="47.00702" lon="-0.79302">
        <ele>103</ele>
        <time>2023-11-05T13:35:05Z</time>
      </trkpt>
      <trkpt lat="47.00584" lon="-0.79468">
        <ele>107</ele>
        <time>2023-11-05T13:38:43Z</time>
      </trkpt>
      <trkpt lat="47.00702" lon="-0.79533">
        <ele>103</ele>
        <time>2023-11-05T13:41:32Z</time>
      </trkpt>
      <trkpt lat="47.00672" lon="-0.79648">
        <ele>106</ele>
        <time>2023-11-05T13:43:24Z</time>
      </trkpt>
      <trkpt lat="47.00791" lon="-0.80009">
        <ele>103</ele>
        <time>2023-11-05T13:49:29Z</time>
      </trkpt>
      <trkpt lat="47.00643" lon="-0.8016">
        <ele>105</ele>
        <time>2023-11-05T13:53:29Z</time>
      </trkpt>
      <trkpt lat="47.0049" lon="-0.80428">
        <ele>104</ele>
        <time>2023-11-05T13:58:47Z</time>
      </trkpt>
      <trkpt lat="47.00323" lon="-0.80449">
        <ele>108</ele>
        <time>2023-11-05T14:02:31Z</time>
      </trkpt>
      <trkpt lat="47.00264" lon="-0.80709">
        <ele>106</ele>
        <time>2023-11-05T14:06:40Z</time>
      </trkpt>
      <trkpt lat="47.0022" lon="-0.81452">
        <ele>122</ele>
        <time>2023-11-05T14:17:59Z</time>
      </trkpt>
      <trkpt lat="47.00106" lon="-0.81452">
        <ele>125</ele>
        <time>2023-11-05T14:20:31Z</time>
      </trkpt>
      <trkpt lat="46.99777" lon="-0.81806">
        <ele>132</ele>
        <time>2023-11-05T14:29:36Z</time>
      </trkpt>
      <trkpt lat="46.99442" lon="-0.81149">
        <ele>114</ele>
        <time>2023-11-05T14:42:02Z</time>
      </trkpt>
      <trkpt lat="46.99009" lon="-0.80738">
        <ele>136</ele>
        <time>2023-11-05T14:53:31Z</time>
      </trkpt>
      <trkpt lat="46.98871" lon="-0.80962">
        <ele>136</ele>
        <time>2023-11-05T14:58:05Z</time>
      </trkpt>
      <trkpt lat="46.98502" lon="-0.80752">
        <ele>168</ele>
        <time>2023-11-05T15:06:54Z</time>
      </trkpt>
      <trkpt lat="46.98723" lon="-0.80305">
        <ele>166</ele>
        <time>2023-11-05T15:15:16Z</time>
      </trkpt>
      <trkpt lat="46.98969" lon="-0.79691">
        <ele>157</ele>
        <time>2023-11-05T15:26:04Z</time>
      </trkpt>
      <trkpt lat="46.99432" lon="-0.78912">
        <ele>150</ele>
        <time>2023-11-05T15:41:45Z</time>
      </trkpt>
      <trkpt lat="46.99693" lon="-0.78486">
        <ele>137</ele>
        <time>2023-11-05T15:50:26Z</time>
      </trkpt>
      <trkpt lat="47.0017" lon="-0.77945">
        <ele>106</ele>
        <time>2023-11-05T16:03:51Z</time>
      </trkpt>
      <trkpt lat="47.00269" lon="-0.77865">
        <ele>103</ele>
        <time>2023-11-05T16:06:22Z</time>
      </trkpt>
      <trkpt lat="47.0025" lon="-0.77685">
        <ele>106</ele>
        <time>2023-11-05T16:09:07Z</time>
      </trkpt>
      <trkpt lat="47.00376" lon="-0.77409">
        <ele>104</ele>
        <time>2023-11-05T16:14:10Z</time>
      </trkpt>
      <trkpt lat="47.00251" lon="-0.76923">
        <ele>107</ele>
        <time>2023-11-05T16:22:02Z</time>
      </trkpt>
      <trkpt lat="47.00197" lon="-0.76976">
        <ele>108</ele>
        <time>2023-11-05T16:23:29Z</time>
      </trkpt>
    </trkseg>
  </trk>
</gpx>